Home / Local Weather & Traffic / California / Grapevine Past Weather

Grapevine, CA Past Weather

Last 30 Days

 
High: 27ºf @1:13 AM    Low: 23ºf @6:13 AM     Approx. Precipitation / Rain Total: in.
Time (PST)Temp. (ºf)Humidity (%)Dew Point (ºf)Barometer (inHG)Wind Speed (mph)Wind DirectionWind Gust (mph)1hr. Precip / Rain Total (in.)Snow Depth
9:13 AM268622.4-8.69n13.9--
6:13 AM239622.03-8.69n17.38--
5:13 AM249121.76-11.3n20.86--
4:13 AM248820.97-10.43n17.38--
3:13 AM258721.69-7.82n15.64--
2:13 AM269424.52-12.17n18.25--
1:13 AM2710027-11.3n17.38--
High: 53ºf @1:13 PM    Low: 30ºf @11:13 PM     Approx. Precipitation / Rain Total: in.
Time (PST)Temp. (ºf)Humidity (%)Dew Point (ºf)Barometer (inHG)Wind Speed (mph)Wind DirectionWind Gust (mph)1hr. Precip / Rain Total (in.)Snow Depth
11:13 PM309629-10.43n14.77--
10:13 PM328929.13-8.69n17.38--
8:13 PM397030.06-6.95n13.03--
6:13 PM426229.94-5.21n8.69--
4:13 PM513826.3-6.08n14.77--
1:13 PM533425.39-5.21nnw9.56--
12:13 PM523223.07-5.21ne10.43--
10:13 AM503322.04-6.95n10.43--
8:13 AM512213.51-4.34nnw15.64--
7:13 AM443719.42-5.21wnw10.43--
6:13 AM434422.6-4.34n6.08--
3:13 AM454022.15-2.61wnw4.34--
2:13 AM463821.83-3.48nnw6.08--
1:13 AM463821.83-4.34n6.08--
High: 60ºf @3:13 PM    Low: 42ºf @12:13 AM     Approx. Precipitation / Rain Total: in.
Time (PST)Temp. (ºf)Humidity (%)Dew Point (ºf)Barometer (inHG)Wind Speed (mph)Wind DirectionWind Gust (mph)1hr. Precip / Rain Total (in.)Snow Depth
10:13 PM473218.69-4.34nnw6.08--
8:13 PM473621.45-5.21nnw7.82--
7:13 PM502717.35-4.34nnw6.08--
3:13 PM601613.7-7.82s16.51--
9:13 AM54134.29-15.64sse18.25--
8:13 AM51177.75-12.17sse16.51--
7:13 AM47196.91-11.3sse13.03--
6:13 AM46196.08-7.82se10.43--
5:13 AM46196.08-8.69sse13.9--
4:13 AM46229.31-11.3sse13.03--
3:13 AM46229.31-6.95se9.56--
2:13 AM434623.65-1.74e4.34--
1:13 AM424019.45-0.87w7.82--
12:13 AM423617-4.34nnw6.95--
High: 50ºf @11:13 AM    Low: 40ºf @7:13 AM     Approx. Precipitation / Rain Total: in.
Time (PST)Temp. (ºf)Humidity (%)Dew Point (ºf)Barometer (inHG)Wind Speed (mph)Wind DirectionWind Gust (mph)1hr. Precip / Rain Total (in.)Snow Depth
10:13 PM47174.48-5.21nne6.08--
9:13 PM442611.35-1.74sw6.95--
8:13 PM434221.5-4.34wnw6.08--
7:13 PM424220.59-4.34nw6.08--
6:13 PM425024.72-5.21nnw7.82--
4:13 PM493723.87-5.21n7.82--
3:13 PM483924.24-6.08n10.43--
2:13 PM474727.83-6.95n9.56--
1:13 PM474828.34-6.95nne10.43--
11:13 AM503221.32-6.08sse10.43--
9:13 AM47196.91-10.43sse13.9--
8:13 AM44205.54-10.43sse17.38--
7:13 AM40235.23-13.9sse18.25--
4:13 AM42214.93-9.56se11.3--
3:13 AM42236.92-8.69se13.03--
2:13 AM43226.79-12.17se13.03--
1:13 AM42225.95-10.43se13.9--
12:13 AM43248.71-6.95se9.56--
High: 44ºf @1:13 PM    Low: 33ºf @8:13 AM     Approx. Precipitation / Rain Total: in.
Time (PST)Temp. (ºf)Humidity (%)Dew Point (ºf)Barometer (inHG)Wind Speed (mph)Wind DirectionWind Gust (mph)1hr. Precip / Rain Total (in.)Snow Depth
11:13 PM422811.29-8.69se11.3--
10:13 PM423315.01-8.69se12.17--
7:13 PM387530.79-3.48nnw7.82--
5:13 PM417333.02-3.48nw6.08--
2:13 PM437635.96-4.34nw10.43--
1:13 PM446131.43-6.08nne8.69--
12:13 PM435628.39-5.21nne8.69--
10:13 AM436230.88-4.34ssw7.82--
9:13 AM388032.39-5.21wnw11.3--
8:13 AM337927.21-6.95n11.3--
6:13 AM356122.93-6.08n9.56--
4:13 AM356122.93-7.82n11.3--
3:13 AM356223.32-4.34n13.03--
2:13 AM366726.12-7.82n11.3--
12:13 AM385824.55-6.08n9.56--
High: 49ºf @1:13 PM    Low: 36ºf @8:13 AM     Approx. Precipitation / Rain Total: in.
Time (PST)Temp. (ºf)Humidity (%)Dew Point (ºf)Barometer (inHG)Wind Speed (mph)Wind DirectionWind Gust (mph)1hr. Precip / Rain Total (in.)Snow Depth
11:13 PM385422.85-5.21nnw7.82--
10:13 PM396327.49-3.48nnw9.56--
9:13 PM397130.41-4.34nw8.69--
7:13 PM397431.43-5.21n7.82--
6:13 PM397230.75-4.34n6.08--
4:13 PM456333.17-4.34nw7.82--
3:13 PM436933.54-5.21n12.17--
1:13 PM496336.96-6.08sw12.17--
8:13 AM3610036-10.43sse15.64--
7:13 AM369835.49-8.69se15.64--
6:13 AM368531.94-9.56sse14.77--
5:13 AM378031.41-6.95sse11.3--
4:13 AM387631.12-6.95sse13.03--
3:13 AM377329.16-9.56sse13.9--
2:13 AM386828.39-6.95se11.3--
1:13 AM396427.87-6.95se18.25--
High: 47ºf @2:13 PM    Low: 31ºf @3:13 AM     Approx. Precipitation / Rain Total: in.
Time (PST)Temp. (ºf)Humidity (%)Dew Point (ºf)Barometer (inHG)Wind Speed (mph)Wind DirectionWind Gust (mph)1hr. Precip / Rain Total (in.)Snow Depth
11:13 PM406428.82-13.9se19.12--
10:13 PM387330.13-7.82se11.3--
9:13 PM387731.44-5.21e6.95--
8:13 PM377529.83-3.48nne6.08--
6:13 PM415325.2-6.08se15.64--
5:13 PM434523.13-9.56se18.25--
2:13 PM474325.68-18.25se33.89--
1:13 PM454726-23.46se36.5--
12:13 PM445528.88-23.46se35.63--
10:13 AM406228.05-19.12se32.15--
9:13 AM376827.44-18.25se26.07--
8:13 AM358230.07-15.64se23.46--
7:13 AM3210032-14.77se20.86--
6:13 AM3210032-14.77se19.99--
5:13 AM3210032-15.64se20.86--
4:13 AM3110031-15.64se18.25--
3:13 AM3110031-15.64sse20.86--
2:13 AM3110031-14.77sse18.25--
1:13 AM3110031-11.3sse16.51--
12:13 AM338328.41-11.3se13.03--
High: 41ºf @10:13 AM    Low: 30ºf @7:13 AM     Approx. Precipitation / Rain Total: in.
Time (PST)Temp. (ºf)Humidity (%)Dew Point (ºf)Barometer (inHG)Wind Speed (mph)Wind DirectionWind Gust (mph)1hr. Precip / Rain Total (in.)Snow Depth
11:13 PM3310033-3.48e6.08--
10:13 PM3310033-1.74ne4.34--
9:13 PM3310033-1.74nw8.69--
8:13 PM339230.93-6.08n9.56--
7:13 PM348529.97-6.95n9.56--
5:13 PM358631.24-6.08n9.56--
3:13 PM359232.92-7.82nne10.43--
2:13 PM359433.45-6.95nne13.03--
1:13 PM378232.03-8.69nne12.17--
11:13 AM417031.98-5.21nne9.56--
10:13 AM416931.62-5.21se8.69--
9:13 AM359934.75-4.34n7.82--
8:13 AM3310033-4.34n6.95--
7:13 AM3010030-0.87ssw3.48--
6:13 AM3110031-1.74s6.08--
5:13 AM3110031-4.34n9.56--
4:13 AM3110031-6.08n11.3--
3:13 AM329931.75-6.95n11.3--
2:13 AM329630.99-8.69n12.17--
12:13 AM356223.32-3.48ene7.82--
High: 58ºf @2:13 PM    Low: 36ºf @11:13 PM     Approx. Precipitation / Rain Total: in.
Time (PST)Temp. (ºf)Humidity (%)Dew Point (ºf)Barometer (inHG)Wind Speed (mph)Wind DirectionWind Gust (mph)1hr. Precip / Rain Total (in.)Snow Depth
11:13 PM365420.99-6.95n16.51--
10:13 PM393815.57-9.56n13.9--
9:13 PM463217.81-4.34nw14.77--
8:13 PM473319.41-6.95s11.3--
7:13 PM462814.74-4.34n8.69--
5:13 PM522113.3-1.74nw5.21--
4:13 PM541912.69-3.48ssw8.69--
3:13 PM541811.47-4.34n9.56--
2:13 PM58101.76-6.08s13.9--
1:13 PM5410-1.31-8.69s18.25--
11:13 AM4612-3.72-24.33sse33.89--
10:13 AM4412-5.3-27.81s39.1--
9:13 AM4212-6.87-26.94sse35.63--
6:13 AM3814-6.9-21.72sse29.55--
5:13 AM3814-6.9-21.72sse31.28--
3:13 AM4016-2.52-19.12sse27.81--
1:13 AM436532.05-18.25sse23.46--
12:13 AM427935.97-6.08sse7.82--
High: 56ºf @10:13 AM    Low: 42ºf @11:13 PM     Approx. Precipitation / Rain Total: in.
Time (PST)Temp. (ºf)Humidity (%)Dew Point (ºf)Barometer (inHG)Wind Speed (mph)Wind DirectionWind Gust (mph)1hr. Precip / Rain Total (in.)Snow Depth
11:13 PM427634.99-3.48ne11.3--
9:13 PM467438.18-4.34nne7.82--
7:13 PM477539.49-4.34n10.43--
5:13 PM496738.53-6.08n11.3--
4:13 PM536441.15-7.82n13.9--
2:13 PM545839.56-7.82n13.9--
1:13 PM535637.73-7.82n11.3--
12:13 PM535336.33-7.82n12.17--
11:13 AM544432.58-8.69n13.03--
10:13 AM564132.64-5.21nnw10.43--
9:13 AM514027.54-6.95n10.43--
8:13 AM513926.92-6.95n12.17--
7:13 AM513524.32-4.34n9.56--
6:13 AM513322.92-4.34n13.9--
4:13 AM513423.63-6.95nnw13.9--
3:13 AM503724.76-6.95n17.38--
12:13 AM504328.39-9.56n14.77--
High: 64ºf @12:13 PM    Low: 50ºf @11:13 PM     Approx. Precipitation / Rain Total: in.
Time (PST)Temp. (ºf)Humidity (%)Dew Point (ºf)Barometer (inHG)Wind Speed (mph)Wind DirectionWind Gust (mph)1hr. Precip / Rain Total (in.)Snow Depth
11:13 PM504931.6-10.43n15.64--
10:13 PM505032.1-12.17n16.51--
9:13 PM514731.49-10.43n14.77--
7:13 PM506237.5-9.56n13.9--
4:13 PM545739.11-8.69nne12.17--
1:13 PM593027.61-7.82nne10.43--
12:13 PM642931.11-5.21nnw8.69--
11:13 AM622828.52-5.21nnw8.69--
5:13 AM561813.11-4.34nnw6.08--
4:13 AM542720.79-4.34nnw6.95--
3:13 AM522819.92-5.21n8.69--
2:13 AM542317.05-6.95n7.82--
1:13 AM552317.9-6.08n7.82--
High: 64ºf @12:13 PM    Low: 52ºf @3:13 AM     Approx. Precipitation / Rain Total: in.
Time (PST)Temp. (ºf)Humidity (%)Dew Point (ºf)Barometer (inHG)Wind Speed (mph)Wind DirectionWind Gust (mph)1hr. Precip / Rain Total (in.)Snow Depth
11:13 PM58137.46-4.34nw6.08--
10:13 PM58137.46-4.34nw6.08--
9:13 PM572117.47-4.34wnw6.08--
8:13 PM552014.68-5.21n6.08--
7:13 PM572016.34-5.21n5.21--
5:13 PM591612.89-3.48n4.34--
4:13 PM601715.08-4.34n6.95--
3:13 PM612524.93-5.21ene7.82--
12:13 PM641413.86-14.77sse21.72--
11:13 AM631413.07-13.9sse18.25--
10:13 AM621412.28-11.3sse16.51--
9:13 AM601512.24-11.3sse13.9--
8:13 AM57159.83-10.43sse13.9--
6:13 AM53179.38-13.03se17.38--
5:13 AM531810.65-13.9se17.38--
4:13 AM531810.65-14.77se20.86--
3:13 AM521911.04-13.03sse16.51--
1:13 AM531810.65-7.82sse9.56--
High: 61ºf @2:13 PM    Low: 51ºf @6:13 AM     Approx. Precipitation / Rain Total: in.
Time (PST)Temp. (ºf)Humidity (%)Dew Point (ºf)Barometer (inHG)Wind Speed (mph)Wind DirectionWind Gust (mph)1hr. Precip / Rain Total (in.)Snow Depth
11:13 PM531911.87-3.48sse4.34--
9:13 PM542317.05-4.34sse6.08--
8:13 PM544633.69-3.48ne6.08--
7:13 PM542114.96-4.34e8.69--
6:13 PM551812.29-6.95sse9.56--
4:13 PM611513.04-11.3s19.99--
3:13 PM611513.04-13.9s22.59--
2:13 PM611513.04-16.51s25.2--
12:13 PM601613.7-19.12s26.07--
11:13 AM601613.7-19.99s26.94--
10:13 AM591511.43-18.25s23.46--
9:13 AM571611.27-16.51sse20.86--
8:13 AM541710.19-15.64sse22.59--
7:13 AM521911.04-15.64sse22.59--
6:13 AM511910.22-17.38sse24.33--
4:13 AM52189.83-19.12sse29.55--
3:13 AM521911.04-22.59sse31.28--
2:13 AM531810.65-20.86sse27.81--
12:13 AM531810.65-19.99sse28.68--
High: 63ºf @1:13 PM    Low: 49ºf @2:13 AM     Approx. Precipitation / Rain Total: in.
Time (PST)Temp. (ºf)Humidity (%)Dew Point (ºf)Barometer (inHG)Wind Speed (mph)Wind DirectionWind Gust (mph)1hr. Precip / Rain Total (in.)Snow Depth
10:13 PM532013.02-18.25sse23.46--
9:13 PM542216.03-16.51sse21.72--
7:13 PM562419.73-15.64sse17.38--
6:13 PM572723.36-14.77se16.51--
3:13 PM632728.5-13.9s19.12--
1:13 PM633534.92-9.56sse13.9--
9:13 AM555740.05-4.34nw8.69--
5:13 AM514429.86-6.08nnw10.43--
2:13 AM494126.34-6.95nne9.56--
1:13 AM533123.19-3.48nnw9.56--
High: 67ºf @1:13 PM    Low: 50ºf @7:13 PM     Approx. Precipitation / Rain Total: in.
Time (PST)Temp. (ºf)Humidity (%)Dew Point (ºf)Barometer (inHG)Wind Speed (mph)Wind DirectionWind Gust (mph)1hr. Precip / Rain Total (in.)Snow Depth
11:13 PM513524.32-5.21nnw10.43--
9:13 PM513826.3-5.21nnw6.95--
7:13 PM505032.1-6.95n10.43--
6:13 PM534029.33-5.21nnw8.69--
1:13 PM672125.78-7.82s12.17--
12:13 PM652427.33-8.69s11.3--
11:13 AM652326.3-5.21sse8.69--
8:13 AM592523.23-3.48nnw6.08--
7:13 AM572420.58-4.34nnw6.08--
5:13 AM543124.06-5.21nne6.95--
4:13 AM562621.61-3.48nnw6.08--
3:13 AM533828.08-3.48n7.82--
1:13 AM562722.5-5.21nne6.08--
12:13 AM562823.36-3.48nnw6.08--
High: 68ºf @1:13 PM    Low: 56ºf @4:13 AM     Approx. Precipitation / Rain Total: in.
Time (PST)Temp. (ºf)Humidity (%)Dew Point (ºf)Barometer (inHG)Wind Speed (mph)Wind DirectionWind Gust (mph)1hr. Precip / Rain Total (in.)Snow Depth
11:13 PM582522.39-3.48nne5.21--
10:13 PM592422.27-2.61n4.34--
8:13 PM582724.22-3.48nnw6.08--
7:13 PM582724.22-5.21n6.95--
5:13 PM612726.78-3.48nnw6.95--
1:13 PM682025.43-7.82s15.64--
12:13 PM672024.61-12.17sse19.12--
11:13 AM652124.12-12.17sse18.25--
10:13 AM642224.4-13.03sse18.25--
9:13 AM612221.89-12.17sse17.38--
8:13 AM592422.27-13.03sse19.99--
7:13 AM572521.54-13.9sse18.25--
6:13 AM562318.74-12.17sse16.51--
4:13 AM562520.69-12.17sse15.64--
3:13 AM582320.42-9.56se12.17--
2:13 AM582118.3-3.48ese6.08--
1:13 AM592119.13-3.48ne5.21--
12:13 AM582421.42-3.48nw6.95--
High: 69ºf @3:13 PM    Low: 56ºf @12:13 AM     Approx. Precipitation / Rain Total: in.
Time (PST)Temp. (ºf)Humidity (%)Dew Point (ºf)Barometer (inHG)Wind Speed (mph)Wind DirectionWind Gust (mph)1hr. Precip / Rain Total (in.)Snow Depth
11:13 PM582219.38-4.34nnw6.08--
10:13 PM572622.46-5.21n6.95--
9:13 PM592321.26-4.34nnw7.82--
8:13 PM582623.32-4.34nnw6.95--
5:13 PM602826.81-4.34n7.82--
3:13 PM691722.38-4.34s10.43--
10:13 AM632223.56-15.64sse20.86--
9:13 AM632223.56-13.03sse15.64--
7:13 AM602423.11-9.56se11.3--
5:13 AM601917.63-5.21se8.69--
4:13 AM571813.93-3.48se6.95--
12:13 AM562419.73-5.21n6.95--
High: 65ºf @2:13 PM    Low: 55ºf @7:13 AM     Approx. Precipitation / Rain Total: in.
Time (PST)Temp. (ºf)Humidity (%)Dew Point (ºf)Barometer (inHG)Wind Speed (mph)Wind DirectionWind Gust (mph)1hr. Precip / Rain Total (in.)Snow Depth
11:13 PM581510.63-3.48sse6.08--
10:13 PM591815.57-4.34sse5.21--
8:13 PM582017.17-4.34sse6.08--
7:13 PM582017.17-3.48sse6.08--
6:13 PM582118.3-5.21sse8.69--
3:13 PM632021.31-12.17s17.38--
2:13 PM651617.73-13.9s21.72--
1:13 PM641718.32-19.12s28.68--
12:13 PM631818.84-22.59sse30.41--
11:13 AM631818.84-21.72sse29.55--
10:13 AM611918.46-19.99sse27.81--
9:13 AM592018-16.51sse20.86--
8:13 AM572117.47-14.77sse18.25--
7:13 AM552216.87-14.77se19.12--
4:13 AM552115.8-10.43se12.17--
High: 67ºf @2:13 PM    Low: 54ºf @6:13 PM     Approx. Precipitation / Rain Total: in.
Time (PST)Temp. (ºf)Humidity (%)Dew Point (ºf)Barometer (inHG)Wind Speed (mph)Wind DirectionWind Gust (mph)1hr. Precip / Rain Total (in.)Snow Depth
11:13 PM571813.93-6.95sse11.3--
10:13 PM581814.75-9.56se12.17--
9:13 PM582118.3-8.69sse9.56--
8:13 PM572319.58-7.82se9.56--
7:13 PM563125.8-5.21se7.82--
6:13 PM545035.78-4.34se6.95--
5:13 PM584436.21-1.74sse6.08--
4:13 PM632324.62-5.21sse8.69--
2:13 PM672327.98-5.21sse7.82--
1:13 PM642729.35-5.21s7.82--
12:13 PM631920.1-4.34nw8.69--
11:13 AM651617.73-6.95sse12.17--
10:13 AM641616.92-8.69sse10.43--
9:13 AM621818.02-7.82sse9.56--
8:13 AM601512.24-6.95sse8.69--
7:13 AM551913.52-3.48e6.08--
6:13 AM551711.01-4.34ene6.08--
5:13 AM552014.68-5.21n6.95--
4:13 AM542114.96-3.48n4.34--
3:13 AM569-2-2.61nne4.34--
2:13 AM552115.8-2.61nne6.08--
1:13 AM552317.9-6.08n6.08--
12:13 AM552317.9-4.34nnw6.08--
High: 61ºf @12:13 PM    Low: 47ºf @9:13 PM     Approx. Precipitation / Rain Total: in.
Time (PST)Temp. (ºf)Humidity (%)Dew Point (ºf)Barometer (inHG)Wind Speed (mph)Wind DirectionWind Gust (mph)1hr. Precip / Rain Total (in.)Snow Depth
11:13 PM532417.19-5.21nnw7.82--
10:13 PM532719.93-6.95nw8.69--
9:13 PM475531.68-7.82n10.43--
8:13 PM512819.06-6.95n9.56--
7:13 PM562419.73-5.21nnw7.82--
4:13 PM612524.93-4.34nnw9.56--
2:13 PM593027.61-4.34nne9.56--
12:13 PM612322.94-5.21nnw7.82--
8:13 AM561914.34-6.08nne8.69--
5:13 AM56124.14-6.08nnw13.03--
4:13 AM55135.09-6.08nnw10.43--
3:13 AM56124.14-4.34nw9.56--
2:13 AM541912.69-5.21nnw7.82--
1:13 AM532114.13-6.08nnw9.56--
High: 65ºf @12:13 PM    Low: 52ºf @11:13 PM     Approx. Precipitation / Rain Total: in.
Time (PST)Temp. (ºf)Humidity (%)Dew Point (ºf)Barometer (inHG)Wind Speed (mph)Wind DirectionWind Gust (mph)1hr. Precip / Rain Total (in.)Snow Depth
11:13 PM522012.19-6.95n9.56--
10:13 PM56135.88-5.21n9.56--
9:13 PM551812.29-8.69nnw12.17--
8:13 PM522315.37-6.08nnw11.3--
7:13 PM531911.87-10.43nne13.03--
6:13 PM561914.34-5.21n9.56--
5:13 PM542013.85-7.82n9.56--
2:13 PM601715.08-5.21n7.82--
12:13 PM651921.74-4.34s10.43--
10:13 AM631514.64-6.08s8.69--
9:13 AM581915.99-6.08s9.56--
8:13 AM561914.34-6.95sse11.3--
7:13 AM552014.68-7.82sse10.43--
6:13 AM542013.85-6.95sse12.17--
5:13 AM542114.96-6.95sse9.56--
4:13 AM542216.03-7.82sse13.03--
3:13 AM542317.05-11.3sse19.99--
2:13 AM542317.05-15.64sse25.2--
1:13 AM542317.05-19.99sse25.2--
High: 61ºf @12:13 PM    Low: 50ºf @6:13 AM     Approx. Precipitation / Rain Total: in.
Time (PST)Temp. (ºf)Humidity (%)Dew Point (ºf)Barometer (inHG)Wind Speed (mph)Wind DirectionWind Gust (mph)1hr. Precip / Rain Total (in.)Snow Depth
11:13 PM542418.04-15.64se18.25--
9:13 PM542418.04-13.9sse22.59--
8:13 PM552519.84-16.51sse22.59--
7:13 PM552418.88-17.38sse22.59--
5:13 PM562318.74-15.64sse20.86--
1:13 PM612019.65-19.12sse26.07--
12:13 PM612221.89-18.25sse24.33--
11:13 AM592422.27-16.51sse26.07--
8:13 AM542821.64-22.59se32.15--
6:13 AM503221.32-20.86se30.41--
5:13 AM512819.06-26.07sse36.5--
4:13 AM512819.06-18.25sse22.59--
3:13 AM522719.07-13.9se17.38--
2:13 AM532619.05-14.77se19.99--
1:13 AM532719.93-17.38sse22.59--
12:13 AM532619.05-17.38sse24.33--
High: 59ºf @3:13 PM    Low: 46ºf @7:13 AM     Approx. Precipitation / Rain Total: in.
Time (PST)Temp. (ºf)Humidity (%)Dew Point (ºf)Barometer (inHG)Wind Speed (mph)Wind DirectionWind Gust (mph)1hr. Precip / Rain Total (in.)Snow Depth
11:13 PM532820.78-17.38sse22.59--
10:13 PM532921.61-17.38se21.72--
8:13 PM542821.64-17.38sse23.46--
7:13 PM552822.5-15.64sse19.99--
6:13 PM552822.5-13.9sse19.12--
3:13 PM592725.07-17.38sse26.07--
2:13 PM592825.95-18.25sse26.07--
11:13 AM553024.14-19.12sse26.07--
9:13 AM503221.32-16.51sse21.72--
8:13 AM483219.57-15.64sse21.72--
7:13 AM463318.53-13.03sse17.38--
4:13 AM473117.95-9.56sse13.03--
2:13 AM472815.61-9.56sse14.77--
High: 50ºf @2:13 PM    Low: 31ºf @6:13 AM     Approx. Precipitation / Rain Total: in.
Time (PST)Temp. (ºf)Humidity (%)Dew Point (ºf)Barometer (inHG)Wind Speed (mph)Wind DirectionWind Gust (mph)1hr. Precip / Rain Total (in.)Snow Depth
8:13 PM462512.17-9.56sse12.17--
7:13 PM462814.74-5.21sse6.08--
3:13 PM475833-2.61s6.08--
2:13 PM504127.24-3.48s9.56--
12:13 PM482715.63-6.95nw12.17--
10:13 AM398835.75-7.82nne10.43--
6:13 AM3110031-5.21nnw8.69--
5:13 AM3110031-7.82n10.43--
4:13 AM346623.85-4.34nnw8.69--
3:13 AM346423.12-5.21nnw8.69--
2:13 AM356725.17-6.95nw8.69--
1:13 AM357828.85-6.08nw10.43--
High: 38ºf @11:13 AM    Low: 30ºf @7:13 AM     Approx. Precipitation / Rain Total: in.
Time (PST)Temp. (ºf)Humidity (%)Dew Point (ºf)Barometer (inHG)Wind Speed (mph)Wind DirectionWind Gust (mph)1hr. Precip / Rain Total (in.)Snow Depth
11:13 PM357728.53-5.21n7.82--
10:13 PM3110031-6.95n7.82--
9:13 PM3110031---4.34--
8:13 PM3210032-3.48n12.17--
2:13 PM379435.44-6.08nne8.69--
1:13 PM369334.18-6.08nne10.43--
12:13 PM388132.7-6.08n7.82--
11:13 AM388233-4.34nnw7.82--
10:13 AM368933.08-4.34nnw6.08--
7:13 AM3010030-2.61nnw6.08--
5:13 AM3110031-4.34n7.82--
4:13 AM3010030-6.08n10.43--
3:13 AM3010030-6.95n11.3--
High: 31ºf @7:13 PM    Low: 31ºf @7:13 PM     Approx. Precipitation / Rain Total: in.
Time (PST)Temp. (ºf)Humidity (%)Dew Point (ºf)Barometer (inHG)Wind Speed (mph)Wind DirectionWind Gust (mph)1hr. Precip / Rain Total (in.)Snow Depth
10:13 PM3110031-6.95n10.43--
9:13 PM3110031-6.95n10.43--
8:13 PM3110031-8.69n12.17--
7:13 PM3110031-8.69n13.9--
Past Weather Disclaimer Note regarding "Approx. Precipitation / Rain Total"

Past Weather Nearby

More Local Information

Bookmark and Share

Grapevine weather and traffic updates by locals

Write your own Grapevine, California report, forecast, or traffic update:

Please note by clicking on "Post" you acknowledge that you have read the Terms of Service and the Grapevine, CA report and/or forecast you are posting is in compliance with such terms. Be respectful. An inappropriate Grapevine, CA report and/or forecast will be removed by a moderator.